Location: Rounton
(54.4000°N, 1.3500°W)
Time: 13:28:43
(UTC+00:00)

Transit 2A - Pass Details

Date: 08 December 2021
Orbit: 591 x 967 km, 66.7° (Epoch: 21 January)

Event Time Altitude Azimuth Distance (km) Brightness Sun altitude
Rises 21:31:49 0° 155° (SSE) 3,364 - -48.3°
Reaches altitude 10° 21:35:24 10° 131° (SE) 2,513 - -48.7°
Maximum altitude 21:38:20 14° 101° (E) 2,282 - -49.1°
Drops below altitude 10° 21:41:22 10° 71° (ENE) 2,627 - -49.4°
Sets 21:45:14 0° 49° (NE) 3,626 - -49.9°
